"Sample Date","Sample Time","Sensor Name","Sample Value","Units","Flow Rate","Sample Interval","Sample Volume","Laser Status","Number Channels","Micron Size 0","Counts/Channel 0","Micron Size 1","Counts/Channel 1","Micron Size 2","Counts/Channel 2","Micron Size 3","Counts/Channel 3","Micron Size 4","Counts/Channel 4","Micron Size 5","Counts/Channel 5","Micron Size 6","Counts/Channel 6","Micron Size 7","Counts/Channel 7","Micron Size 8","Counts/Channel 8","Micron Size 9","Counts/Channel 9","Micron Size 10","Counts/Channel 10","Micron Size 11","Counts/Channel 11","Micron Size 12","Counts/Channel 12","Micron Size 13","Counts/Channel 13","Micron Size 14","Counts/Channel 14","Micron Size 15","Counts/Channel 15","Micron Size 16","Counts/Channel 16","Micron Size 17","Counts/Channel 17","Micron Size 18","Counts/Channel 18","Micron Size 19","Counts/Channel 19","Micron Size 20","Counts/Channel 20","Micron Size 21","Counts/Channel 21","Micron Size 22","Counts/Channel 22","Micron Size 23","Counts/Channel 23","Micron Size 24","Counts/Channel 24","Micron Size 25","Counts/Channel 25","Micron Size 26","Counts/Channel 26","Micron Size 27","Counts/Channel 27","Micron Size 28","Counts/Channel 28","Micron Size 29","Counts/Channel 29","Micron Size 30","Counts/Channel 30","Micron Size 31","Counts/Channel 31"
"07/04/06","10:00:01","AMMA06",61245.000,"cc",28270.746,6.00,2827.075,1,6,0.100,36806.000,0.200,20686.000,0.300,2401.000,0.500,828.000,1.000,524.000,5.000,0
"07/04/06","10:00:07","AMMA06",62313.000,"cc",28371.148,6.00,2837.115,1,6,0.100,37251.000,0.200,21150.000,0.300,2503.000,0.500,868.000,1.000,539.000,5.000,2.000
"07/04/06","10:00:13","AMMA06",62403.000,"cc",28356.902,6.00,2835.690,1,6,0.100,37459.000,0.200,20950.000,0.300,2638.000,0.500,842.000,1.000,514.000,5.000,0
"07/04/06","10:00:19","AMMA06",62061.000,"cc",28304.617,6.00,2830.462,1,6,0.100,37360.000,0.200,20751.000,0.300,2583.000,0.500,837.000,1.000,529.000,5.000,1.000
"07/04/06","10:00:25","AMMA06",61785.000,"cc",28278.281,6.00,2827.828,1,6,0.100,37164.000,0.200,20723.000,0.300,2505.000,0.500,820.000,1.000,573.000,5.000,0
"07/04/06","10:00:31","AMMA06",62014.000,"cc",28300.834,6.00,2830.084,1,6,0.100,36980.000,0.200,21148.000,0.300,2517.000,0.500,831.000,1.000,538.000,5.000,0
"07/04/06","10:00:37","AMMA06",61852.000,"cc",28336.363,6.00,2833.637,1,6,0.100,36934.000,0.200,20979.000,0.300,2513.000,0.500,849.000,1.000,576.000,5.000,1.000
"07/04/06","10:00:43","AMMA06",61841.000,"cc",28317.645,6.00,2831.765,1,6,0.100,36945.000,0.200,20938.000,0.300,2597.000,0.500,856.000,1.000,504.000,5.000,1.000
"07/04/06","10:00:49","AMMA06",62039.000,"cc",28245.772,6.00,2824.577,1,6,0.100,36873.000,0.200,21257.000,0.300,2547.000,0.500,816.000,1.000,545.000,5.000,1.000
"07/04/06","10:00:55","AMMA06",62058.000,"cc",28272.752,6.00,2827.275,1,6,0.100,36868.000,0.200,21229.000,0.300,2567.000,0.500,808.000,1.000,586.000,5.000,0
"07/04/06","10:01:01","AMMA06",61828.000,"cc",28370.033,6.00,2837.003,1,6,0.100,36961.000,0.200,20988.000,0.300,2531.000,0.500,848.000,1.000,500.000,5.000,0
"07/04/06","10:01:07","AMMA06",62143.000,"cc",28331.592,6.00,2833.159,1,6,0.100,37014.000,0.200,21233.000,0.300,2584.000,0.500,803.000,1.000,509.000,5.000,0
"07/04/06","10:01:13","AMMA06",61583.000,"cc",28284.303,6.00,2828.430,1,6,0.100,36638.000,0.200,21054.000,0.300,2542.000,0.500,826.000,1.000,523.000,5.000,0
"07/04/06","10:01:19","AMMA06",61728.000,"cc",28345.416,6.00,2834.542,1,6,0.100,36773.000,0.200,21057.000,0.300,2575.000,0.500,832.000,1.000,491.000,5.000,0
"07/04/06","10:01:25","AMMA06",61580.000,"cc",28328.037,6.00,2832.804,1,6,0.100,36688.000,0.200,21003.000,0.300,2586.000,0.500,802.000,1.000,500.000,5.000,1.000
"07/04/06","10:01:31","AMMA06",62062.000,"cc",28293.506,6.00,2829.351,1,6,0.100,36839.000,0.200,21265.000,0.300,2552.000,0.500,852.000,1.000,554.000,5.000,0
"07/04/06","10:01:37","AMMA06",61751.000,"cc",28306.940,6.00,2830.694,1,6,0.100,36583.000,0.200,21138.000,0.300,2638.000,0.500,847.000,1.000,545.000,5.000,0
"07/04/06","10:01:43","AMMA06",61874.000,"cc",28336.900,6.00,2833.690,1,6,0.100,36795.000,0.200,21147.000,0.300,2507.000,0.500,874.000,1.000,550.000,5.000,1.000
"07/04/06","10:01:49","AMMA06",61684.000,"cc",28327.133,6.00,2832.713,1,6,0.100,37049.000,0.200,20774.000,0.300,2487.000,0.500,825.000,1.000,548.000,5.000,1.000
"07/04/06","10:01:55","AMMA06",61477.000,"cc",28279.365,6.00,2827.937,1,6,0.100,36801.000,0.200,20824.000,0.300,2517.000,0.500,838.000,1.000,497.000,5.000,0
"07/04/06","10:02:01","AMMA06",60983.000,"cc",28297.986,6.00,2829.799,1,6,0.100,36472.000,0.200,20636.000,0.300,2570.000,0.500,815.000,1.000,490.000,5.000,0
"07/04/06","10:02:07","AMMA06",61209.000,"cc",28364.020,6.00,2836.402,1,6,0.100,36438.000,0.200,20875.000,0.300,2539.000,0.500,817.000,1.000,540.000,5.000,0
"07/04/06","10:02:13","AMMA06",61883.000,"cc",28346.631,6.00,2834.663,1,6,0.100,37064.000,0.200,20850.000,0.300,2563.000,0.500,871.000,1.000,535.000,5.000,0
"07/04/06","10:02:19","AMMA06",61095.000,"cc",28290.746,6.00,2829.075,1,6,0.100,36551.000,0.200,20611.000,0.300,2563.000,0.500,853.000,1.000,517.000,5.000,0
"07/04/06","10:02:25","AMMA06",61430.000,"cc",28287.049,6.00,2828.705,1,6,0.100,36660.000,0.200,20826.000,0.300,2550.000,0.500,873.000,1.000,521.000,5.000,0
"07/04/06","10:02:31","AMMA06",61630.000,"cc",28317.221,6.00,2831.722,1,6,0.100,36993.000,0.200,20791.000,0.300,2491.000,0.500,811.000,1.000,542.000,5.000,2.000
"07/04/06","10:02:37","AMMA06",62340.000,"cc",28303.475,6.00,2830.348,1,6,0.100,37206.000,0.200,21285.000,0.300,2482.000,0.500,827.000,1.000,540.000,5.000,0
"07/04/06","10:02:43","AMMA06",62132.000,"cc",28325.107,6.00,2832.511,1,6,0.100,36989.000,0.200,21203.000,0.300,2556.000,0.500,844.000,1.000,540.000,5.000,0
"07/04/06","10:02:49","AMMA06",62297.000,"cc",28332.086,6.00,2833.209,1,6,0.100,37073.000,0.200,21251.000,0.300,2617.000,0.500,835.000,1.000,521.000,5.000,0
"07/04/06","10:02:55","AMMA06",62041.000,"cc",28334.965,6.00,2833.497,1,6,0.100,36637.000,0.200,21529.000,0.300,2539.000,0.500,841.000,1.000,495.000,5.000,0
"07/04/06","10:03:01","AMMA06",62527.000,"cc",28299.354,6.00,2829.936,1,6,0.100,36856.000,0.200,21824.000,0.300,2492.000,0.500,794.000,1.000,561.000,5.000,0
"07/04/06","10:03:07","AMMA06",62776.000,"cc",28304.760,6.00,2830.476,1,6,0.100,37027.000,0.200,21720.000,0.300,2648.000,0.500,853.000,1.000,528.000,5.000,0
"07/04/06","10:03:13","AMMA06",61987.000,"cc",28320.893,6.00,2832.089,1,6,0.100,36475.000,0.200,21529.000,0.300,2645.000,0.500,794.000,1.000,544.000,5.000,0
"07/04/06","10:03:19","AMMA06",62926.000,"cc",28346.434,6.00,2834.644,1,6,0.100,37265.000,0.200,21668.000,0.300,2631.000,0.500,785.000,1.000,576.000,5.000,1.000
"07/04/06","10:03:25","AMMA06",63438.000,"cc",28239.451,6.00,2823.945,1,6,0.100,37344.000,0.200,22097.000,0.300,2605.000,0.500,826.000,1.000,565.000,5.000,1.000
"07/04/06","10:03:31","AMMA06",63774.000,"cc",28376.621,6.00,2837.662,1,6,0.100,37307.000,0.200,22403.000,0.300,2647.000,0.500,816.000,1.000,601.000,5.000,0
"07/04/06","10:03:37","AMMA06",63023.000,"cc",28336.869,6.00,2833.687,1,6,0.100,36994.000,0.200,22072.000,0.300,2608.000,0.500,827.000,1.000,521.000,5.000,1.000
"07/04/06","10:03:43","AMMA06",62984.000,"cc",28332.303,6.00,2833.231,1,6,0.100,37137.000,0.200,21820.000,0.300,2643.000,0.500,842.000,1.000,541.000,5.000,1.000
"07/04/06","10:03:49","AMMA06",63151.000,"cc",28292.686,6.00,2829.269,1,6,0.100,36864.000,0.200,22065.000,0.300,2735.000,0.500,931.000,1.000,556.000,5.000,0
"07/04/06","10:03:55","AMMA06",62718.000,"cc",28309.373,6.00,2830.938,1,6,0.100,36994.000,0.200,21701.000,0.300,2693.000,0.500,810.000,1.000,519.000,5.000,1.000
"07/04/06","10:04:01","AMMA06",62924.000,"cc",28324.463,6.00,2832.447,1,6,0.100,37021.000,0.200,21833.000,0.300,2634.000,0.500,868.000,1.000,566.000,5.000,2.000
"07/04/06","10:04:07","AMMA06",63103.000,"cc",28319.160,6.00,2831.916,1,6,0.100,37134.000,0.200,21810.000,0.300,2651.000,0.500,915.000,1.000,593.000,5.000,0
"07/04/06","10:04:13","AMMA06",62890.000,"cc",28377.428,6.00,2837.743,1,6,0.100,37142.000,0.200,21763.000,0.300,2596.000,0.500,859.000,1.000,529.000,5.000,1.000
"07/04/06","10:04:19","AMMA06",62962.000,"cc",28259.229,6.00,2825.923,1,6,0.100,36919.000,0.200,22098.000,0.300,2553.000,0.500,852.000,1.000,539.000,5.000,1.000
"07/04/06","10:04:25","AMMA06",62576.000,"cc",28290.326,6.00,2829.033,1,6,0.100,36973.000,0.200,21621.000,0.300,2597.000,0.500,852.000,1.000,533.000,5.000,0
"07/04/06","10:04:31","AMMA06",62626.000,"cc",28323.119,6.00,2832.312,1,6,0.100,36941.000,0.200,21682.000,0.300,2598.000,0.500,859.000,1.000,545.000,5.000,1.000
"07/04/06","10:04:37","AMMA06",62805.000,"cc",28304.145,6.00,2830.415,1,6,0.100,37221.000,0.200,21567.000,0.300,2625.000,0.500,855.000,1.000,536.000,5.000,1.000
"07/04/06","10:04:43","AMMA06",62548.000,"cc",28288.082,6.00,2828.808,1,6,0.100,37260.000,0.200,21436.000,0.300,2530.000,0.500,830.000,1.000,491.000,5.000,1.000
"07/04/06","10:04:49","AMMA06",62376.000,"cc",28307.369,6.00,2830.737,1,6,0.100,36895.000,0.200,21571.000,0.300,2560.000,0.500,801.000,1.000,549.000,5.000,0
"07/04/06","10:04:55","AMMA06",62177.000,"cc",28326.758,6.00,2832.676,1,6,0.100,36969.000,0.200,21271.000,0.300,2521.000,0.500,835.000,1.000,581.000,5.000,0
"07/04/06","10:05:01","AMMA06",62034.000,"cc",28294.127,6.00,2829.413,1,6,0.100,37022.000,0.200,21203.000,0.300,2490.000,0.500,794.000,1.000,525.000,5.000,0
"07/04/06","10:05:07","AMMA06",62366.000,"cc",28333.162,6.00,2833.316,1,6,0.100,37066.000,0.200,21408.000,0.300,2512.000,0.500,847.000,1.000,533.000,5.000,0
"07/04/06","10:05:13","AMMA06",62471.000,"cc",28341.004,6.00,2834.101,1,6,0.100,37292.000,0.200,21167.000,0.300,2661.000,0.500,812.000,1.000,538.000,5.000,1.000
"07/04/06","10:05:19","AMMA06",62117.000,"cc",28339.350,6.00,2833.935,1,6,0.100,36714.000,0.200,21393.000,0.300,2615.000,0.500,826.000,1.000,569.000,5.000,0
"07/04/06","10:05:25","AMMA06",62112.000,"cc",28307.631,6.00,2830.763,1,6,0.100,37176.000,0.200,21041.000,0.300,2579.000,0.500,805.000,1.000,510.000,5.000,1.000
"07/04/06","10:05:31","AMMA06",62860.000,"cc",28245.967,6.00,2824.597,1,6,0.100,37469.000,0.200,21513.000,0.300,2602.000,0.500,801.000,1.000,475.000,5.000,0
"07/04/06","10:05:37","AMMA06",62633.000,"cc",28305.545,6.00,2830.555,1,6,0.100,37264.000,0.200,21278.000,0.300,2620.000,0.500,878.000,1.000,593.000,5.000,0
"07/04/06","10:05:43","AMMA06",62169.000,"cc",28318.387,6.00,2831.839,1,6,0.100,36785.000,0.200,21426.000,0.300,2561.000,0.500,841.000,1.000,555.000,5.000,1.000
"07/04/06","10:05:49","AMMA06",62415.000,"cc",28356.856,6.00,2835.686,1,6,0.100,37196.000,0.200,21297.000,0.300,2540.000,0.500,851.000,1.000,531.000,5.000,0
"07/04/06","10:05:55","AMMA06",62666.000,"cc",28333.672,6.00,2833.367,1,6,0.100,37358.000,0.200,21226.000,0.300,2670.000,0.500,855.000,1.000,557.000,5.000,0
"07/04/06","10:06:01","AMMA06",63296.000,"cc",28347.172,6.00,2834.717,1,6,0.100,37653.000,0.200,21669.000,0.300,2570.000,0.500,882.000,1.000,522.000,5.000,0
"07/04/06","10:06:07","AMMA06",62125.000,"cc",28312.188,6.00,2831.219,1,6,0.100,36608.000,0.200,21480.000,0.300,2650.000,0.500,835.000,1.000,552.000,5.000,0
"07/04/06","10:06:13","AMMA06",61995.000,"cc",28313.143,6.00,2831.315,1,6,0.100,36771.000,0.200,21373.000,0.300,2526.000,0.500,800.000,1.000,524.000,5.000,1.000
"07/04/06","10:06:19","AMMA06",62390.000,"cc",28325.522,6.00,2832.552,1,6,0.100,36806.000,0.200,21543.000,0.300,2634.000,0.500,850.000,1.000,557.000,5.000,0
"07/04/06","10:06:25","AMMA06",62025.000,"cc",28359.232,6.00,2835.923,1,6,0.100,36431.000,0.200,21432.000,0.300,2716.000,0.500,901.000,1.000,544.000,5.000,1.000
"07/04/06","10:06:31","AMMA06",61550.000,"cc",28310.682,6.00,2831.068,1,6,0.100,36385.000,0.200,21299.000,0.300,2557.000,0.500,802.000,1.000,507.000,5.000,0
"07/04/06","10:06:37","AMMA06",62130.000,"cc",28301.400,6.00,2830.140,1,6,0.100,36703.000,0.200,21394.000,0.300,2645.000,0.500,853.000,1.000,535.000,5.000,0
"07/04/06","10:06:43","AMMA06",62335.000,"cc",28278.852,6.00,2827.885,1,6,0.100,37020.000,0.200,21447.000,0.300,2545.000,0.500,797.000,1.000,526.000,5.000,0
"07/04/06","10:06:49","AMMA06",62078.000,"cc",28317.193,6.00,2831.720,1,6,0.100,36713.000,0.200,21433.000,0.300,2628.000,0.500,762.000,1.000,542.000,5.000,0
"07/04/06","10:06:55","AMMA06",62268.000,"cc",28345.096,6.00,2834.510,1,6,0.100,36604.000,0.200,21574.000,0.300,2685.000,0.500,844.000,1.000,560.000,5.000,1.000
"07/04/06","10:07:01","AMMA06",61971.000,"cc",28360.223,6.00,2836.023,1,6,0.100,36902.000,0.200,21123.000,0.300,2570.000,0.500,816.000,1.000,560.000,5.000,0
"07/04/06","10:07:07","AMMA06",62271.000,"cc",28360.131,6.00,2836.013,1,6,0.100,36897.000,0.200,21491.000,0.300,2538.000,0.500,823.000,1.000,522.000,5.000,0
"07/04/06","10:07:13","AMMA06",61894.000,"cc",28290.072,6.00,2829.007,1,6,0.100,36561.000,0.200,21314.000,0.300,2616.000,0.500,850.000,1.000,553.000,5.000,0
"07/04/06","10:07:19","AMMA06",62057.000,"cc",28249.586,6.00,2824.959,1,6,0.100,36992.000,0.200,21286.000,0.300,2448.000,0.500,811.000,1.000,520.000,5.000,0
"07/04/06","10:07:25","AMMA06",61977.000,"cc",28322.363,6.00,2832.237,1,6,0.100,36748.000,0.200,21302.000,0.300,2586.000,0.500,778.000,1.000,561.000,5.000,2.000
"07/04/06","10:07:31","AMMA06",61992.000,"cc",28332.604,6.00,2833.261,1,6,0.100,37004.000,0.200,21049.000,0.300,2593.000,0.500,791.000,1.000,554.000,5.000,1.000
"07/04/06","10:07:37","AMMA06",62449.000,"cc",28328.686,6.00,2832.869,1,6,0.100,37204.000,0.200,21292.000,0.300,2568.000,0.500,846.000,1.000,539.000,5.000,0
"07/04/06","10:07:43","AMMA06",62265.000,"cc",28271.014,6.00,2827.102,1,6,0.100,37236.000,0.200,21107.000,0.300,2550.000,0.500,807.000,1.000,564.000,5.000,1.000
"07/04/06","10:07:49","AMMA06",62126.000,"cc",28306.602,6.00,2830.660,1,6,0.100,37055.000,0.200,21099.000,0.300,2608.000,0.500,818.000,1.000,546.000,5.000,0
"07/04/06","10:07:55","AMMA06",61514.000,"cc",28318.574,6.00,2831.858,1,6,0.100,36627.000,0.200,20987.000,0.300,2541.000,0.500,841.000,1.000,517.000,5.000,1.000
"07/04/06","10:08:01","AMMA06",61670.000,"cc",28356.551,6.00,2835.655,1,6,0.100,36710.000,0.200,21126.000,0.300,2511.000,0.500,811.000,1.000,512.000,5.000,0
"07/04/06","10:08:07","AMMA06",61683.000,"cc",28219.842,6.00,2821.984,1,6,0.100,36869.000,0.200,20847.000,0.300,2593.000,0.500,808.000,1.000,566.000,5.000,0
"07/04/06","10:08:13","AMMA06",62579.000,"cc",28312.555,6.00,2831.256,1,6,0.100,37420.000,0.200,21237.000,0.300,2546.000,0.500,833.000,1.000,542.000,5.000,1.000
"07/04/06","10:08:19","AMMA06",62379.000,"cc",28337.695,6.00,2833.770,1,6,0.100,37314.000,0.200,21197.000,0.300,2495.000,0.500,839.000,1.000,533.000,5.000,1.000
"07/04/06","10:08:25","AMMA06",61731.000,"cc",28382.662,6.00,2838.266,1,6,0.100,36857.000,0.200,21096.000,0.300,2478.000,0.500,805.000,1.000,495.000,5.000,0
"07/04/06","10:08:31","AMMA06",61554.000,"cc",28340.154,6.00,2834.016,1,6,0.100,36736.000,0.200,20881.000,0.300,2582.000,0.500,848.000,1.000,506.000,5.000,1.000
"07/04/06","10:08:37","AMMA06",62299.000,"cc",28312.145,6.00,2831.215,1,6,0.100,37225.000,0.200,21148.000,0.300,2563.000,0.500,846.000,1.000,516.000,5.000,1.000
"07/04/06","10:08:43","AMMA06",62134.000,"cc",28288.539,6.00,2828.854,1,6,0.100,37131.000,0.200,21178.000,0.300,2449.000,0.500,886.000,1.000,490.000,5.000,0
"07/04/06","10:08:49","AMMA06",62442.000,"cc",28288.461,6.00,2828.846,1,6,0.100,37524.000,0.200,21033.000,0.300,2529.000,0.500,813.000,1.000,543.000,5.000,0
"07/04/06","10:08:55","AMMA06",62475.000,"cc",28336.912,6.00,2833.691,1,6,0.100,37301.000,0.200,21276.000,0.300,2543.000,0.500,827.000,1.000,528.000,5.000,0
"07/04/06","10:09:01","AMMA06",62320.000,"cc",28335.318,6.00,2833.532,1,6,0.100,37064.000,0.200,21405.000,0.300,2529.000,0.500,843.000,1.000,479.000,5.000,0
"07/04/06","10:09:07","AMMA06",62412.000,"cc",28344.336,6.00,2834.434,1,6,0.100,37269.000,0.200,21369.000,0.300,2495.000,0.500,791.000,1.000,488.000,5.000,0
"07/04/06","10:09:13","AMMA06",62794.000,"cc",28344.209,6.00,2834.421,1,6,0.100,37434.000,0.200,21504.000,0.300,2517.000,0.500,786.000,1.000,552.000,5.000,1.000
"07/04/06","10:09:19","AMMA06",62030.000,"cc",28323.764,6.00,2832.377,1,6,0.100,36973.000,0.200,21317.000,0.300,2432.000,0.500,795.000,1.000,511.000,5.000,2.000
"07/04/06","10:09:25","AMMA06",62063.000,"cc",28269.203,6.00,2826.920,1,6,0.100,37044.000,0.200,21246.000,0.300,2435.000,0.500,818.000,1.000,520.000,5.000,0
"07/04/06","10:09:31","AMMA06",62470.000,"cc",28290.092,6.00,2829.009,1,6,0.100,37042.000,0.200,21524.000,0.300,2572.000,0.500,810.000,1.000,522.000,5.000,0
"07/04/06","10:09:37","AMMA06",62792.000,"cc",28321.412,6.00,2832.141,1,6,0.100,37132.000,0.200,21814.000,0.300,2534.000,0.500,777.000,1.000,535.000,5.000,0
"07/04/06","10:09:43","AMMA06",62739.000,"cc",28333.438,6.00,2833.344,1,6,0.100,37261.000,0.200,21451.000,0.300,2685.000,0.500,827.000,1.000,513.000,5.000,2.000
"07/04/06","10:09:49","AMMA06",62856.000,"cc",28296.307,6.00,2829.631,1,6,0.100,37460.000,0.200,21502.000,0.300,2537.000,0.500,836.000,1.000,521.000,5.000,0
"07/04/06","10:09:55","AMMA06",62857.000,"cc",28310.340,6.00,2831.034,1,6,0.100,37110.000,0.200,21831.000,0.300,2555.000,0.500,844.000,1.000,516.000,5.000,1.000
"07/04/06","10:10:01","AMMA06",62794.000,"cc",28343.336,6.00,2834.334,1,6,0.100,37030.000,0.200,21855.000,0.300,2590.000,0.500,823.000,1.000,496.000,5.000,0
"07/04/06","10:10:07","AMMA06",62622.000,"cc",28314.178,6.00,2831.418,1,6,0.100,36711.000,0.200,22025.000,0.300,2572.000,0.500,763.000,1.000,551.000,5.000,0
"07/04/06","10:10:13","AMMA06",62901.000,"cc",28305.145,6.00,2830.515,1,6,0.100,36822.000,0.200,22172.000,0.300,2523.000,0.500,859.000,1.000,524.000,5.000,1.000
"07/04/06","10:10:19","AMMA06",62407.000,"cc",28370.316,6.00,2837.032,1,6,0.100,36531.000,0.200,22011.000,0.300,2531.000,0.500,804.000,1.000,529.000,5.000,1.000
"07/04/06","10:10:25","AMMA06",62632.000,"cc",28310.268,6.00,2831.027,1,6,0.100,36372.000,0.200,22148.000,0.300,2684.000,0.500,871.000,1.000,556.000,5.000,1.000
"07/04/06","10:10:31","AMMA06",62232.000,"cc",28280.975,6.00,2828.098,1,6,0.100,36113.000,0.200,22036.000,0.300,2666.000,0.500,843.000,1.000,574.000,5.000,0
"07/04/06","10:10:37","AMMA06",62376.000,"cc",28330.287,6.00,2833.029,1,6,0.100,36027.000,0.200,22281.000,0.300,2703.000,0.500,813.000,1.000,552.000,5.000,0
"07/04/06","10:10:43","AMMA06",62402.000,"cc",28298.350,6.00,2829.835,1,6,0.100,36235.000,0.200,22085.000,0.300,2737.000,0.500,804.000,1.000,539.000,5.000,2.000
"07/04/06","10:10:49","AMMA06",62238.000,"cc",28354.100,6.00,2835.410,1,6,0.100,35991.000,0.200,22173.000,0.300,2710.000,0.500,830.000,1.000,531.000,5.000,3.000
"07/04/06","10:10:55","AMMA06",61971.000,"cc",28340.875,6.00,2834.088,1,6,0.100,35819.000,0.200,22047.000,0.300,2722.000,0.500,826.000,1.000,556.000,5.000,1.000
"07/04/06","10:11:01","AMMA06",62579.000,"cc",28287.549,6.00,2828.755,1,6,0.100,36236.000,0.200,22290.000,0.300,2683.000,0.500,847.000,1.000,523.000,5.000,0
"07/04/06","10:11:07","AMMA06",62542.000,"cc",28289.057,6.00,2828.906,1,6,0.100,36008.000,0.200,22443.000,0.300,2725.000,0.500,806.000,1.000,560.000,5.000,0
"07/04/06","10:11:13","AMMA06",62113.000,"cc",28331.023,6.00,2833.103,1,6,0.100,35860.000,0.200,22228.000,0.300,2690.000,0.500,776.000,1.000,557.000,5.000,2.000
"07/04/06","10:11:19","AMMA06",62093.000,"cc",28373.731,6.00,2837.373,1,6,0.100,35678.000,0.200,22372.000,0.300,2723.000,0.500,790.000,1.000,530.000,5.000,0
"07/04/06","10:11:25","AMMA06",62405.000,"cc",28286.039,6.00,2828.604,1,6,0.100,35863.000,0.200,22409.000,0.300,2777.000,0.500,800.000,1.000,556.000,5.000,0
"07/04/06","10:11:31","AMMA06",62344.000,"cc",28317.840,6.00,2831.784,1,6,0.100,36057.000,0.200,22081.000,0.300,2752.000,0.500,876.000,1.000,577.000,5.000,1.000
"07/04/06","10:11:37","AMMA06",62427.000,"cc",28303.857,6.00,2830.386,1,6,0.100,36044.000,0.200,22402.000,0.300,2650.000,0.500,788.000,1.000,543.000,5.000,0
"07/04/06","10:11:43","AMMA06",62250.000,"cc",28326.619,6.00,2832.662,1,6,0.100,36026.000,0.200,22105.000,0.300,2717.000,0.500,845.000,1.000,557.000,5.000,0
"07/04/06","10:11:49","AMMA06",62264.000,"cc",28334.176,6.00,2833.418,1,6,0.100,36013.000,0.200,22151.000,0.300,2747.000,0.500,838.000,1.000,514.000,5.000,1.000
"07/04/06","10:11:55","AMMA06",62304.000,"cc",28273.260,6.00,2827.326,1,6,0.100,36007.000,0.200,22126.000,0.300,2787.000,0.500,841.000,1.000,542.000,5.000,1.000
"07/04/06","10:12:01","AMMA06",62220.000,"cc",28325.898,6.00,2832.590,1,6,0.100,36255.000,0.200,22003.000,0.300,2590.000,0.500,859.000,1.000,513.000,5.000,0
"07/04/06","10:12:07","AMMA06",62385.000,"cc",28398.082,6.00,2839.808,1,6,0.100,36249.000,0.200,22091.000,0.300,2695.000,0.500,828.000,1.000,521.000,5.000,1.000
"07/04/06","10:12:13","AMMA06",62268.000,"cc",28287.871,6.00,2828.787,1,6,0.100,35920.000,0.200,22191.000,0.300,2731.000,0.500,877.000,1.000,548.000,5.000,1.000
"07/04/06","10:12:19","AMMA06",62248.000,"cc",28269.479,6.00,2826.948,1,6,0.100,36400.000,0.200,21780.000,0.300,2653.000,0.500,836.000,1.000,579.000,5.000,0
"07/04/06","10:12:25","AMMA06",62271.000,"cc",28359.979,6.00,2835.998,1,6,0.100,36165.000,0.200,22066.000,0.300,2663.000,0.500,849.000,1.000,528.000,5.000,0
"07/04/06","10:12:31","AMMA06",62491.000,"cc",28270.668,6.00,2827.067,1,6,0.100,36308.000,0.200,22159.000,0.300,2652.000,0.500,825.000,1.000,546.000,5.000,1.000
"07/04/06","10:12:37","AMMA06",62845.000,"cc",28244.119,6.00,2824.412,1,6,0.100,36479.000,0.200,22209.000,0.300,2827.000,0.500,799.000,1.000,531.000,5.000,0
"07/04/06","10:12:43","AMMA06",62281.000,"cc",28360.365,6.00,2836.037,1,6,0.100,36229.000,0.200,21962.000,0.300,2685.000,0.500,841.000,1.000,563.000,5.000,1.000
"07/04/06","10:12:49","AMMA06",62645.000,"cc",28352.211,6.00,2835.221,1,6,0.100,36405.000,0.200,22122.000,0.300,2708.000,0.500,846.000,1.000,564.000,5.000,0
"07/04/06","10:12:55","AMMA06",61997.000,"cc",28336.590,6.00,2833.659,1,6,0.100,36068.000,0.200,21947.000,0.300,2667.000,0.500,783.000,1.000,531.000,5.000,1.000
"07/04/06","10:13:01","AMMA06",62689.000,"cc",28258.037,6.00,2825.804,1,6,0.100,36789.000,0.200,21898.000,0.300,2591.000,0.500,853.000,1.000,558.000,5.000,0
"07/04/06","10:13:07","AMMA06",62363.000,"cc",28366.500,6.00,2836.650,1,6,0.100,36811.000,0.200,21578.000,0.300,2690.000,0.500,760.000,1.000,523.000,5.000,1.000
"07/04/06","10:13:13","AMMA06",62241.000,"cc",28329.334,6.00,2832.934,1,6,0.100,36550.000,0.200,21715.000,0.300,2592.000,0.500,871.000,1.000,513.000,5.000,0
"07/04/06","10:13:19","AMMA06",61991.000,"cc",28241.982,6.00,2824.199,1,6,0.100,36352.000,0.200,21581.000,0.300,2674.000,0.500,857.000,1.000,527.000,5.000,0
"07/04/06","10:13:25","AMMA06",62026.000,"cc",28382.643,6.00,2838.264,1,6,0.100,36492.000,0.200,21605.000,0.300,2598.000,0.500,819.000,1.000,511.000,5.000,1.000
"07/04/06","10:13:31","AMMA06",62177.000,"cc",28282.045,6.00,2828.205,1,6,0.100,36472.000,0.200,21744.000,0.300,2586.000,0.500,831.000,1.000,544.000,5.000,0
"07/04/06","10:13:37","AMMA06",61987.000,"cc",28303.834,6.00,2830.384,1,6,0.100,36167.000,0.200,21842.000,0.300,2598.000,0.500,825.000,1.000,555.000,5.000,0
"07/04/06","10:13:43","AMMA06",61194.000,"cc",28312.750,6.00,2831.275,1,6,0.100,35736.000,0.200,21568.000,0.300,2538.000,0.500,822.000,1.000,529.000,5.000,1.000
"07/04/06","10:13:49","AMMA06",61856.000,"cc",28335.565,6.00,2833.557,1,6,0.100,36293.000,0.200,21543.000,0.300,2625.000,0.500,873.000,1.000,522.000,5.000,0
"07/04/06","10:13:55","AMMA06",61989.000,"cc",28347.973,6.00,2834.797,1,6,0.100,36437.000,0.200,21670.000,0.300,2564.000,0.500,803.000,1.000,513.000,5.000,2.000
"07/04/06","10:14:01","AMMA06",61527.000,"cc",28284.586,6.00,2828.459,1,6,0.100,36044.000,0.200,21624.000,0.300,2505.000,0.500,816.000,1.000,538.000,5.000,0
"07/04/06","10:14:07","AMMA06",61784.000,"cc",28363.764,6.00,2836.377,1,6,0.100,36228.000,0.200,21692.000,0.300,2539.000,0.500,831.000,1.000,493.000,5.000,1.000